Location: *
(46.4000°N, 12.6667°E)
Time: 13:25:42
(UTC+00:00)

SL-08 R/B - Pass Details

Date: 09 April 2020
Orbit: 951 x 1018 km, 82.9° (Epoch: 28 May)

Event Time Altitude Azimuth Distance (km) Brightness Sun altitude
Rises 20:26:16 0° 350° (N) 3,643 8.3 -24.4°
Reaches altitude 10° 20:28:46 10° 349° (N) 2,697 7.5 -24.8°
Maximum altitude 20:34:55 78° 264° (W) 990 4.5 -25.5°
Enters shadow 20:36:45 48° 189° (S) 1,244 4.7 -25.7°
